GLO1841 SBVT-SBGL

Flight info

Callsign GLO1841
Flight time 0h 48m
Altitude 36000
Route USVAG UN401 MOLSU
Aircraft B738/M-SDE2E3FGHIRWXY/LB1

Departure

Time 2026-04-25 09:14
Airport Eurico de Aguiar Salles International Airport (SBVT)

Arrival

Time 2026-04-25 10:02
Airport Rio Galeão – Tom Jobim International Airport (SBGL)
Time Latitude Longitude Altitude Speed Heading
2026-04-25 08:49 -20.26613 -40.28154 14 ft 0 kts 262°
2026-04-25 09:06 -20.26612 -40.28140 14 ft 2 kts 262°
2026-04-25 09:06 -20.26610 -40.28125 14 ft 2 kts 262°
2026-04-25 09:07 -20.26608 -40.28109 14 ft 2 kts 246°
2026-04-25 09:07 -20.26599 -40.28097 14 ft 2 kts 217°
2026-04-25 09:07 -20.26585 -40.28090 14 ft 2 kts 188°
2026-04-25 09:07 -20.26574 -40.28090 14 ft 0 kts 167°
2026-04-25 09:08 -20.26573 -40.28091 14 ft 0 kts 166°
2026-04-25 09:10 -20.26608 -40.28084 14 ft 7 kts 168°
2026-04-25 09:11 -20.26619 -40.27985 14 ft 9 kts 72°
2026-04-25 09:11 -20.26615 -40.27965 13 ft 0 kts 80°
2026-04-25 09:12 -20.26611 -40.27943 13 ft 9 kts 81°
2026-04-25 09:12 -20.26599 -40.27872 13 ft 6 kts 61°
2026-04-25 09:12 -20.26559 -40.27856 13 ft 6 kts 355°
2026-04-25 09:13 -20.26543 -40.27858 13 ft 0 kts 352°
2026-04-25 09:13 -20.26515 -40.27862 13 ft 23 kts 352°
2026-04-25 09:13 -20.26067 -40.27931 14 ft 103 kts 352°
2026-04-25 09:13 -20.25119 -40.28068 15 ft 169 kts 352°
2026-04-25 09:14 -20.23859 -40.28248 483 ft 191 kts 353°
2026-04-25 09:14 -20.22549 -40.28330 1474 ft 188 kts
2026-04-25 09:14 -20.21320 -40.27936 2297 ft 195 kts 30°
2026-04-25 09:14 -20.20291 -40.26969 2908 ft 204 kts 53°
2026-04-25 09:15 -20.19615 -40.25687 3623 ft 201 kts 63°
2026-04-25 09:15 -20.19000 -40.24266 3978 ft 218 kts 65°
2026-04-25 09:15 -20.18452 -40.22760 4524 ft 225 kts 75°
2026-04-25 09:15 -20.18462 -40.21053 4858 ft 243 kts 109°
2026-04-25 09:16 -20.19453 -40.19634 5460 ft 245 kts 142°
2026-04-25 09:16 -20.20975 -40.18669 5717 ft 263 kts 156°
2026-04-25 09:16 -20.22727 -40.18003 6337 ft 274 kts 165°
2026-04-25 09:16 -20.24583 -40.17604 7215 ft 275 kts 173°
2026-04-25 09:17 -20.28422 -40.17727 8792 ft 280 kts 197°
2026-04-25 09:17 -20.30240 -40.18432 9547 ft 281 kts 207°
2026-04-25 09:17 -20.31946 -40.19434 10011 ft 282 kts 216°
2026-04-25 09:18 -20.33464 -40.20802 10583 ft 289 kts 229°
2026-04-25 09:18 -20.34674 -40.22467 11366 ft 288 kts 238°
2026-04-25 09:18 -20.35657 -40.24355 11727 ft 302 kts 248°
2026-04-25 09:18 -20.36232 -40.26557 12151 ft 315 kts 262°
2026-04-25 09:19 -20.36358 -40.28930 12476 ft 331 kts 272°
2026-04-25 09:19 -20.36056 -40.31396 12784 ft 347 kts 284°
2026-04-25 09:19 -20.35135 -40.33825 13102 ft 361 kts 300°
2026-04-25 09:19 -20.33753 -40.36134 13516 ft 371 kts 298°
2026-04-25 09:20 -20.32964 -40.38714 14092 ft 375 kts 275°
2026-04-25 09:20 -20.33219 -40.41473 14668 ft 378 kts 251°
2026-04-25 09:20 -20.34517 -40.43874 15293 ft 379 kts 227°
2026-04-25 09:20 -20.36550 -40.45622 15875 ft 381 kts 212°
2026-04-25 09:21 -20.38854 -40.47036 16471 ft 383 kts 210°
2026-04-25 09:21 -20.41159 -40.48505 17060 ft 384 kts 214°
2026-04-25 09:21 -20.43318 -40.50205 17606 ft 387 kts 220°
2026-04-25 09:21 -20.45297 -40.52138 18172 ft 389 kts 225°
2026-04-25 09:22 -20.47161 -40.54247 18691 ft 393 kts 228°
2026-04-25 09:22 -20.48949 -40.56434 19270 ft 394 kts 229°
2026-04-25 09:22 -20.50722 -40.58665 19784 ft 397 kts 230°
2026-04-25 09:22 -20.52504 -40.60911 20347 ft 399 kts 230°
2026-04-25 09:23 -20.54319 -40.63192 20833 ft 402 kts 230°
2026-04-25 09:23 -20.56128 -40.65454 21388 ft 403 kts 230°
2026-04-25 09:23 -20.57957 -40.67734 21857 ft 407 kts 230°
2026-04-25 09:23 -20.59794 -40.70016 22393 ft 408 kts 230°
2026-04-25 09:24 -20.61664 -40.72335 22849 ft 411 kts 230°
2026-04-25 09:24 -20.63519 -40.74633 23387 ft 412 kts 230°
2026-04-25 09:24 -20.65409 -40.76973 23805 ft 416 kts 230°
2026-04-25 09:24 -20.67296 -40.79309 24280 ft 418 kts 230°
2026-04-25 09:25 -20.69188 -40.81651 24725 ft 420 kts 230°
2026-04-25 09:25 -20.71132 -40.84036 25130 ft 423 kts 229°
2026-04-25 09:25 -20.73065 -40.86362 25586 ft 425 kts 229°
2026-04-25 09:25 -20.75067 -40.88749 26013 ft 428 kts 229°
2026-04-25 09:26 -20.77047 -40.91101 26393 ft 431 kts 228°
2026-04-25 09:26 -20.79059 -40.93491 26854 ft 432 kts 229°
2026-04-25 09:26 -20.81058 -40.95870 27214 ft 435 kts 229°
2026-04-25 09:26 -20.83079 -40.98277 27649 ft 436 kts 229°
2026-04-25 09:27 -20.85128 -41.00722 27973 ft 439 kts 229°
2026-04-25 09:27 -20.87163 -41.03154 28303 ft 442 kts 229°
2026-04-25 09:27 -20.89211 -41.05604 28636 ft 444 kts 229°
2026-04-25 09:27 -20.91260 -41.08058 28995 ft 446 kts 229°
2026-04-25 09:28 -20.93342 -41.10554 29346 ft 448 kts 229°
2026-04-25 09:28 -20.95426 -41.13053 29676 ft 450 kts 229°
2026-04-25 09:28 -20.97484 -41.15522 30076 ft 450 kts 229°
2026-04-25 09:28 -20.99570 -41.18027 30722 ft 445 kts 229°
2026-04-25 09:29 -21.01624 -41.20493 31258 ft 442 kts 229°
2026-04-25 09:29 -21.03646 -41.22924 31663 ft 441 kts 229°
2026-04-25 09:29 -21.05670 -41.25357 32092 ft 440 kts 229°
2026-04-25 09:29 -21.07716 -41.27819 32487 ft 439 kts 229°
2026-04-25 09:30 -21.09723 -41.30235 32931 ft 437 kts 229°
2026-04-25 09:30 -21.11745 -41.32670 33351 ft 436 kts 229°
2026-04-25 09:30 -21.13756 -41.35094 33747 ft 435 kts 229°
2026-04-25 09:30 -21.15748 -41.37497 34159 ft 433 kts 229°
2026-04-25 09:31 -21.17757 -41.39919 34579 ft 432 kts 229°
2026-04-25 09:31 -21.19734 -41.42304 34963 ft 430 kts 229°
2026-04-25 09:31 -21.21708 -41.44686 35380 ft 428 kts 229°
2026-04-25 09:31 -21.23696 -41.47086 35723 ft 427 kts 229°
2026-04-25 09:32 -21.25668 -41.49468 36015 ft 427 kts 229°
2026-04-25 09:32 -21.29637 -41.54265 36056 ft 430 kts 229°
2026-04-25 09:33 -21.33587 -41.59043 36053 ft 426 kts 229°
2026-04-25 09:33 -21.37532 -41.63824 36056 ft 428 kts 229°
2026-04-25 09:34 -21.41466 -41.68597 36056 ft 428 kts 229°
2026-04-25 09:34 -21.45415 -41.73390 36057 ft 427 kts 229°
2026-04-25 09:35 -21.49338 -41.78156 36060 ft 426 kts 229°
2026-04-25 09:35 -21.53233 -41.82892 36066 ft 425 kts 229°
2026-04-25 09:36 -21.57137 -41.87643 36070 ft 425 kts 229°
2026-04-25 09:36 -21.61046 -41.92405 36071 ft 425 kts 229°
2026-04-25 09:37 -21.64951 -41.97166 36067 ft 424 kts 229°
2026-04-25 09:37 -21.68848 -42.01922 36063 ft 424 kts 229°
2026-04-25 09:38 -21.72751 -42.06690 36064 ft 424 kts 230°
2026-04-25 09:38 -21.76633 -42.11434 35901 ft 422 kts 230°
2026-04-25 09:38 -21.78567 -42.13800 35443 ft 418 kts 230°
2026-04-25 09:39 -21.80483 -42.16136 34810 ft 416 kts 229°
2026-04-25 09:39 -21.82443 -42.18426 34085 ft 417 kts 226°
2026-04-25 09:39 -21.84580 -42.20523 33345 ft 418 kts 219°
2026-04-25 09:40 -21.89427 -42.23957 32035 ft 418 kts 212°
2026-04-25 09:40 -21.91946 -42.25480 31631 ft 412 kts 211°
2026-04-25 09:40 -21.94458 -42.26953 31160 ft 408 kts 211°
2026-04-25 09:40 -21.96918 -42.28388 30687 ft 404 kts 211°
2026-04-25 09:41 -21.99384 -42.29833 30214 ft 406 kts 211°
2026-04-25 09:41 -22.01925 -42.31339 29722 ft 422 kts 211°
2026-04-25 09:41 -22.04468 -42.32917 29205 ft 423 kts 214°
2026-04-25 09:41 -22.06860 -42.34748 28700 ft 416 kts 223°
2026-04-25 09:42 -22.08833 -42.36947 28245 ft 408 kts 233°
2026-04-25 09:42 -22.10383 -42.39478 28109 ft 398 kts 242°
2026-04-25 09:42 -22.12597 -42.44971 28105 ft 405 kts 252°
2026-04-25 09:43 -22.14102 -42.50783 27755 ft 401 kts 256°
2026-04-25 09:43 -22.14761 -42.53669 27302 ft 397 kts 256°
2026-04-25 09:43 -22.15413 -42.56559 26831 ft 393 kts 256°
2026-04-25 09:44 -22.16055 -42.59388 26369 ft 390 kts 256°
2026-04-25 09:44 -22.16702 -42.62199 25910 ft 386 kts 256°
2026-04-25 09:44 -22.17356 -42.65002 25453 ft 382 kts 256°
2026-04-25 09:44 -22.17998 -42.67735 25006 ft 378 kts 256°
2026-04-25 09:45 -22.18643 -42.70461 24559 ft 375 kts 256°
2026-04-25 09:45 -22.19286 -42.73165 24120 ft 371 kts 256°
2026-04-25 09:45 -22.19932 -42.75875 23685 ft 368 kts 256°
2026-04-25 09:45 -22.20556 -42.78492 23266 ft 365 kts 255°
2026-04-25 09:46 -22.21184 -42.81121 22838 ft 362 kts 255°
2026-04-25 09:46 -22.21808 -42.83740 22414 ft 359 kts 256°
2026-04-25 09:46 -22.22425 -42.86327 22095 ft 357 kts 256°
2026-04-25 09:46 -22.23054 -42.88963 21870 ft 371 kts 256°
2026-04-25 09:47 -22.23704 -42.91689 21627 ft 373 kts 256°
2026-04-25 09:47 -22.24348 -42.94389 21388 ft 370 kts 256°
2026-04-25 09:47 -22.24980 -42.97046 21062 ft 363 kts 256°
2026-04-25 09:47 -22.25599 -42.99642 20660 ft 359 kts 256°
2026-04-25 09:48 -22.26216 -43.02239 20244 ft 355 kts 256°
2026-04-25 09:48 -22.26822 -43.04791 20042 ft 348 kts 256°
2026-04-25 09:48 -22.27420 -43.07309 19699 ft 342 kts 256°
2026-04-25 09:48 -22.28006 -43.09782 19308 ft 339 kts 256°
2026-04-25 09:49 -22.28583 -43.12218 18912 ft 336 kts 256°
2026-04-25 09:49 -22.29166 -43.14686 18518 ft 350 kts 256°
2026-04-25 09:49 -22.29779 -43.17283 18084 ft 356 kts 256°
2026-04-25 09:49 -22.30379 -43.19825 17672 ft 351 kts 256°
2026-04-25 09:50 -22.30981 -43.22373 17272 ft 347 kts 256°
2026-04-25 09:50 -22.31574 -43.24882 16867 ft 343 kts 256°
2026-04-25 09:50 -22.32150 -43.27325 16470 ft 339 kts 256°
2026-04-25 09:50 -22.32733 -43.29797 16070 ft 335 kts 256°
2026-04-25 09:51 -22.33300 -43.32206 15652 ft 333 kts 256°
2026-04-25 09:51 -22.33861 -43.34592 15252 ft 329 kts 256°
2026-04-25 09:51 -22.34426 -43.36993 14869 ft 326 kts 256°
2026-04-25 09:51 -22.34980 -43.39350 14492 ft 322 kts 256°
2026-04-25 09:52 -22.35529 -43.41690 14131 ft 328 kts 256°
2026-04-25 09:52 -22.36100 -43.44118 13737 ft 340 kts 255°
2026-04-25 09:52 -22.36852 -43.46525 13346 ft 338 kts 245°
2026-04-25 09:52 -22.38179 -43.48577 13059 ft 333 kts 223°
2026-04-25 09:53 -22.40114 -43.49926 12575 ft 335 kts 205°
2026-04-25 09:53 -22.42293 -43.50849 12054 ft 335 kts 201°
2026-04-25 09:53 -22.44487 -43.51685 11520 ft 334 kts 200°
2026-04-25 09:53 -22.46672 -43.52523 10831 ft 330 kts 200°
2026-04-25 09:54 -22.48818 -43.53373 10132 ft 327 kts 201°
2026-04-25 09:54 -22.50933 -43.54237 9602 ft 318 kts 202°
2026-04-25 09:54 -22.52953 -43.55077 9294 ft 303 kts 202°
2026-04-25 09:54 -22.54904 -43.55776 9015 ft 289 kts 194°
2026-04-25 09:55 -22.56860 -43.55932 8572 ft 285 kts 170°
2026-04-25 09:55 -22.58732 -43.55228 8087 ft 282 kts 154°
2026-04-25 09:55 -22.60462 -43.54219 7528 ft 282 kts 151°
2026-04-25 09:55 -22.62164 -43.53200 6973 ft 282 kts 152°
2026-04-25 09:56 -22.63845 -43.52114 6540 ft 277 kts 143°
2026-04-25 09:56 -22.65250 -43.50738 6142 ft 272 kts 129°
2026-04-25 09:56 -22.66362 -43.49111 5701 ft 266 kts 122°
2026-04-25 09:56 -22.67356 -43.47473 5377 ft 256 kts 122°
2026-04-25 09:57 -22.68318 -43.45887 4887 ft 256 kts 122°
2026-04-25 09:57 -22.69302 -43.44345 4321 ft 244 kts 123°
2026-04-25 09:57 -22.70273 -43.42886 3831 ft 230 kts 124°
2026-04-25 09:57 -22.71176 -43.41542 3414 ft 217 kts 123°
2026-04-25 09:58 -22.71995 -43.40243 3115 ft 202 kts 122°
2026-04-25 09:58 -22.72775 -43.39031 2857 ft 187 kts 123°
2026-04-25 09:58 -22.73524 -43.37921 2571 ft 178 kts 123°
2026-04-25 09:58 -22.74229 -43.36870 2412 ft 174 kts 123°
2026-04-25 09:59 -22.74927 -43.35819 2092 ft 167 kts 123°
2026-04-25 09:59 -22.75591 -43.34825 1909 ft 161 kts 123°
2026-04-25 09:59 -22.76238 -43.33860 1710 ft 156 kts 123°
2026-04-25 09:59 -22.76872 -43.32908 1489 ft 155 kts 122°
2026-04-25 10:00 -22.77502 -43.31958 1284 ft 155 kts 123°
2026-04-25 10:00 -22.78133 -43.31017 1084 ft 153 kts 123°
2026-04-25 10:00 -22.78753 -43.30090 879 ft 152 kts 123°
2026-04-25 10:00 -22.79378 -43.29161 664 ft 152 kts 124°
2026-04-25 10:01 -22.79996 -43.28246 485 ft 148 kts 124°
2026-04-25 10:01 -22.80598 -43.27346 300 ft 148 kts 124°
2026-04-25 10:01 -22.81201 -43.26439 109 ft 146 kts 124°
2026-04-25 10:01 -22.81788 -43.25559 24 ft 139 kts 125°
2026-04-25 10:02 -22.82276 -43.24821 24 ft 99 kts 126°
2026-04-25 10:02 -22.82571 -43.24383 30 ft 43 kts 125°
2026-04-25 10:02 -22.82737 -43.24131 34 ft 32 kts 126°
2026-04-25 10:02 -22.82843 -43.23970 37 ft 20 kts 125°
2026-04-25 10:03 -22.82843 -43.23861 37 ft 14 kts 40°
2026-04-25 10:03 -22.82762 -43.23830 38 ft 11 kts 328°
2026-04-25 10:03 -22.82712 -43.23897 38 ft 11 kts 306°
2026-04-25 10:03 -22.82667 -43.23965 38 ft 11 kts 305°
2026-04-25 10:04 -22.82620 -43.24035 36 ft 11 kts 305°
2026-04-25 10:04 -22.82571 -43.24108 35 ft 12 kts 306°
2026-04-25 10:04 -22.82519 -43.24185 33 ft 13 kts 307°
2026-04-25 10:04 -22.82460 -43.24275 30 ft 14 kts 304°
2026-04-25 10:05 -22.82403 -43.24363 31 ft 13 kts 306°
2026-04-25 10:05 -22.82347 -43.24444 30 ft 13 kts 307°
2026-04-25 10:05 -22.82294 -43.24522 30 ft 12 kts 305°
2026-04-25 10:05 -22.82242 -43.24603 29 ft 13 kts 304°
2026-04-25 10:06 -22.82186 -43.24687 27 ft 14 kts 307°
2026-04-25 10:06 -22.82120 -43.24759 26 ft 12 kts 354°
2026-04-25 10:06 -22.82047 -43.24714 26 ft 11 kts 38°
2026-04-25 10:06 -22.81988 -43.24667 28 ft 9 kts 36°
2026-04-25 10:07 -22.81930 -43.24634 29 ft 8 kts
2026-04-25 10:07 -22.81871 -43.24623 30 ft 10 kts 28°
2026-04-25 10:07 -22.81804 -43.24573 32 ft 10 kts 36°
2026-04-25 10:07 -22.81750 -43.24532 33 ft 8 kts 35°
2026-04-25 10:08 -22.81703 -43.24494 33 ft 7 kts 38°
2026-04-25 10:08 -22.81663 -43.24500 34 ft 5 kts 336°
2026-04-25 10:08 -22.81637 -43.24513 35 ft 2 kts 334°
2026-04-25 10:08 -22.81628 -43.24517 35 ft 1 kts 333°
2026-04-25 10:09 -22.81619 -43.24522 35 ft 0 kts 333°